Slocum (G2) Rose (unit_552) on mission MASSMO 3 Piloting

  • Public vehicle
  • Serial Number unit_552
  • Operated by RN on the MASSMO project

  • Deployed: 2016/09/15 00:00:00 UTC (1127 days ago)
  • Recovered: 2016/10/01 18:40:00 UTC (1111 days ago)
  • Time at Sea: 16 days
  • Profiles Performed: 833

Near Real-Time Data

 
backscatter
cdom
chlorophyll
conductivity
density
salinity
sound_velocity
temperature

Communication Log

# Updated Depth Speed Plots
1084274 2016-10-01 17:50:58 UTC (1111 days ago)
1084267 2016-10-01 17:47:34 UTC (1111 days ago)
1084260 2016-10-01 17:41:47 UTC (1111 days ago)
1084254 2016-10-01 17:35:39 UTC (1111 days ago)
1084243 2016-10-01 17:29:28 UTC (1111 days ago)
1084237 2016-10-01 17:23:14 UTC (1111 days ago)
1084229 2016-10-01 17:17:11 UTC (1111 days ago)
1084223 2016-10-01 17:11:07 UTC (1111 days ago)
1084216 2016-10-01 17:05:02 UTC (1111 days ago)
1084209 2016-10-01 16:58:57 UTC (1111 days ago)
1084203 2016-10-01 16:52:50 UTC (1111 days ago)
1084195 2016-10-01 16:46:45 UTC (1111 days ago)
1084188 2016-10-01 16:40:38 UTC (1111 days ago)
1084181 2016-10-01 16:34:31 UTC (1111 days ago)
1084176 2016-10-01 16:28:24 UTC (1111 days ago)
1084166 2016-10-01 16:19:45 UTC (1111 days ago)
1084160 2016-10-01 16:13:36 UTC (1111 days ago)
1084152 2016-10-01 16:07:19 UTC (1111 days ago)
1084146 2016-10-01 16:01:14 UTC (1111 days ago)
1084138 2016-10-01 15:54:56 UTC (1111 days ago)